Welcome to the New NWS' Forecast!
Most changes are behind the scenes, but click here for differences you might notice.

Regional Weather Roundup (RWR)

Issued by Gray - Portland, ME (GYX)

                            
000
ASUS41 KGYX 212210
RWRGYX
WEATHER ROUNDUP FOR MAINE AND NEW HAMPSHIRE
NATIONAL WEATHER SERVICE GRAY ME
600 PM EDT SUN OCT 21 2018

MEZ002-005-006-010-012-015-018-020-021-024-026-027-029-212300-
MAINE
  
CITY           SKY/WX    TMP DP  RH WIND       PRES   REMARKS
PORTLAND       CLOUDY    40  22  48 NW15      29.87R                  
SANFORD        FAIR      38  20  48 NW10G17   29.89R                  
BAR HARBOR     CLOUDY    40  22  48 NW12G18   29.78R                  
WISCASSET      CLOUDY    39  21  48 NW8G24    29.85R                  
ROCKLAND       CLOUDY    40  23  50 NW12G17   29.80R                  
FRYEBURG       FAIR      36  17  46 W9G18     29.88R                  
LEWISTONAUBURN FAIR      37  20  50 NW15      29.86R                  
AUGUSTA        MOCLDY    37  21  52 NW16G24   29.84R                  
WATERVILLE     MOCLDY    38  19  46 NW10      29.80R                  
BANGOR         FAIR      38  18  44 NW20G29   29.80R                  
GREENVILLE       N/A     31  19  61 NW15G28   29.72R                  
MILLINOCKET    CLOUDY    36  19  50 NW13G21   29.78R                  
HOULTON        CLOUDY    36  23  59 NW12      29.71R                  
PRESQUE ISLE   CLOUDY    36  22  56 W12       29.72R                  
FRENCHVILLE    CLOUDY    32  18  56 NW20G26   29.71R                  
CARIBOU        CLOUDY    36  21  54 NW10      29.70R                  
$$

NHZ002-005-008-009-011-012-014-212300-
NEW HAMPSHIRE
  
CITY           SKY/WX    TMP DP  RH WIND       PRES   REMARKS
PORTSMOUTH     PTCLDY    38  17  41 NW21G29   29.89R                  
ROCHESTER      FAIR      38  20  48 NW15G26   29.89R                  
NASHUA         FAIR      40  19  43 NW15G21   29.94R                  
MANCHESTER     FAIR      40  18  41 NW15G23   29.92R                  
CONCORD        CLOUDY    37  19  48 NW17G24   29.93R                  
LACONIA        CLOUDY    36  20  52 W7        29.92R                  
PLYMOUTH       CLOUDY    36  21  55 NW9G18    29.92R                  
BERLIN         CLOUDY    34  18  52 NW9G16    29.86R                  
WHITEFIELD     CLOUDY    34  19  54 W10G16    29.90R                  
JAFFREY        FAIR      37  20  50 NW8G18    29.92R                  
KEENE          FAIR      39  18  42 NW6       29.95R                  
LEBANON        CLOUDY    38  19  46 NW9G20    29.95R                  
MT WASHINGTON  SNOW       9   9 100 NW72G86     N/A  VSB 1/16WCI -23  
$$

VTZ005-007-008-212300-
VERMONT
  
CITY           SKY/WX    TMP DP  RH WIND       PRES   REMARKS
ST JOHNSBURY     N/A     35  20  54 MISG      29.92R                  
MONTPELIER     FLURRIES  32  24  72 NW12      29.98R                  
BURLINGTON     MOCLDY    38  20  48 NW12G23   30.00R                  
$$

MAZ007-012-024-CTZ003-RIZ002-NYZ038-NYZ072-212300-
SOUTHERN NEW ENGLAND AND NY
  
CITY           SKY/WX    TMP DP  RH WIND       PRES   REMARKS
BOSTON         FAIR      44  19  36 NW16G29   29.92R                  
WORCESTER      FAIR      37  19  48 NW14G22   29.92R                  
NANTUCKET      CLOUDY    45  28  51 NW14G25   29.88R                  
PROVIDENCE     FAIR      43  23  45 NW9G20    29.94R                  
HARTFORD       FAIR      41  22  46 NW6       29.98R                  
ALBANY         FAIR      40  22  48 W17       30.03R                  
NEW YORK CITY  FAIR      47  26  44 NW23G32   30.05R                  
$$

ANZ081-ANZ082-ANZ150-NHZ014-MEZ023>029-212300-
COASTAL MARINE OBSERVATIONS
  
STATION/POSITION TIME  TEMP    WIND        PRES    WAVE
                       AIR SEA DIR/SP/G            HT/PER
                 (UTC) (F)     (DEG/KT/KT) (MB)    (FT/S)
MOUNT DESERT ROC 2200   42     320/ 28/ 31 1008.0R
MATINICUS ROCK   2100   43     340/ 27/ 30 1007.1R
ISLE OF SHOALS   2100   41     310/ 35/ 38 1009.7R
JEFFREYS LEDGE   2106      55                N/A     7/ 6
$$

.............KEY..............
   WCI - WIND CHILL
   TC  - TEMPERATURE IN CELSIUS
   VSB - VISIBILITY IN MILES
   HX  - HEAT INDEX
   FAIR- INDICATES FEW OR NO CLOUDS BELOW 12,000 FT, WITH NO 
         SIGNIFICANT WEATHER AND/OR OBSTRUCTIONS TO VISIBILITY.